User: anonymous   Login
Location: Sungai Apap
(2.6167°N, 113.3833°E)
Time: 16:36:39
(UTC+00:00)
Language:

NOSS 0 Rocket - Orbit

View from above orbital plane
View from above orbital plane
View from above satellite
View from above satellite

Ground track
Ground track

The orbit data is extracted from the following two-line orbital elements,

1  5679U 71110B   24200.22125733  .00000092  00000-0  12533-3 0  9998
2  5679  69.9975  28.0804 0015066 289.8364  70.1111 13.85527316272535
Epoch (UTC): 18 July 2024 05:18:36
Eccentricity: 0.0015066
inclination: 69.9975°
perigee height: 933 km
apogee height: 955 km
right ascension of ascending node: 28.0804°
argument of perigee: 289.8364°
revolutions per day: 13.85527316
mean anomaly at epoch: 70.1111°
orbit number at epoch: 27253

The dashed part of the orbit path shows where the satellite is in the earth's shadow,  

DLR